Location: Chenereilles
(45.4866°N, 4.0790°E)
Time: 20:58:15
(UTC+00:00)

Cosmos 1408 Rocket - Pass Details

Date: 12 November 2019
Orbit: 602 x 630 km, 82.6° (Epoch: 07 December)

Event Time Altitude Azimuth Distance (km) Brightness Sun altitude
Rises 16:46:57 0° 350° (N) 2,897 6.9 -5.7°
Reaches altitude 10° 16:49:11 10° 349° (N) 1,991 6.1 -6.0°
Maximum altitude 16:53:36 82° 263° (W) 634 3.7 -6.8°
Drops below altitude 10° 16:58:01 10° 176° (S) 1,991 6.4 -7.5°
Sets 17:00:14 0° 176° (S) 2,897 7.2 -7.9°
